,,,PA_Meas_PMT16A,,PR_Meas_QMR101_102,,RH_Meas_QMH101,,SR_Meas_QMS101,,TA_Meas_QMH101,,GenWind,,GenWind,
date,time,status,PA,status,PR,status,RH,status,SR,status,TA,status,DirAvg,status,SpdAvg,
2011-01-14, 00:00:04,VALID,997.909,VALID,0,VALID,91.5326,VALID,0,VALID,22.4916,VALID,296,VALID,0.329297,
2011-01-14, 00:01:04,VALID,997.914,VALID,0,VALID,91.5478,VALID,0,VALID,22.4721,VALID,296,VALID,0.445313,
2011-01-14, 00:02:04,VALID,997.909,VALID,0,VALID,91.6012,VALID,0,VALID,22.4916,VALID,296,VALID,0.616797,
2011-01-14, 00:03:04,VALID,997.904,VALID,0,VALID,91.6699,VALID,0,VALID,22.5111,VALID,296,VALID,0.366016,
2011-01-14, 00:04:04,VALID,997.94,VALID,0,VALID,91.7157,VALID,0,VALID,22.4916,VALID,296,VALID,0.247656,
2011-01-14, 00:05:04,VALID,997.939,VALID,0,VALID,91.7691,VALID,0.112286,VALID,22.4916,VALID,296,VALID,0.134766,
2011-01-14, 00:06:04,VALID,997.951,VALID,0,VALID,91.8148,VALID,0,VALID,22.4721,VALID,296,VALID,0.090625,
2011-01-14, 00:07:04,VALID,997.971,VALID,0,VALID,91.8377,VALID,0.112286,VALID,22.4704,VALID,296,VALID,0.157031,
2011-01-14, 00:08:04,VALID,997.985,VALID,0,VALID,91.8911,VALID,0,VALID,22.4916,VALID,296,VALID,0.096875,
2011-01-14, 00:09:04,VALID,997.945,VALID,0,VALID,91.9445,VALID,0.112286,VALID,22.4916,VALID,296,VALID,0.18125,
2011-01-14, 00:10:04,VALID,997.966,VALID,0,VALID,91.9522,VALID,0,VALID,22.4916,VALID,296,VALID,0.199609,
2011-01-14, 00:11:04,VALID,997.944,VALID,0,VALID,91.9903,VALID,0.112286,VALID,22.4916,VALID,296,VALID,0.05,
2011-01-14, 00:12:04,VALID,997.944,VALID,0,VALID,92.0285,VALID,0.112286,VALID,22.4916,VALID,296,VALID,0,
2011-01-14, 00:13:04,VALID,997.888,VALID,0,VALID,92.0437,VALID,0,VALID,22.4704,VALID,296,VALID,0,
2011-01-14, 00:14:04,VALID,997.901,VALID,0,VALID,92.0743,VALID,0,VALID,22.4721,VALID,296,VALID,0,
2011-01-14, 00:15:04,VALID,997.907,VALID,0,VALID,92.0895,VALID,0,VALID,22.4721,VALID,296,VALID,0,
2011-01-14, 00:16:04,VALID,997.91,VALID,0,VALID,92.0971,VALID,0.112286,VALID,22.4721,VALID,296,VALID,0.399609,
2011-01-14, 00:17:04,VALID,997.927,VALID,0,VALID,92.12,VALID,0,VALID,22.4526,VALID,296,VALID,0.338281,
2011-01-14, 00:18:04,VALID,997.925,VALID,0,VALID,92.1506,VALID,0,VALID,22.4526,VALID,296,VALID,0.192969,
2011-01-14, 00:19:04,VALID,997.933,VALID,0,VALID,92.1506,VALID,0,VALID,22.4526,VALID,296,VALID,0.510938,
2011-01-14, 00:20:04,VALID,997.948,VALID,0,VALID,92.1734,VALID,0,VALID,22.4526,VALID,296,VALID,0.604297,
2011-01-14, 00:21:04,VALID,997.975,VALID,0,VALID,92.1734,VALID,0.112286,VALID,22.4526,VALID,296,VALID,0.560938,
2011-01-14, 00:22:04,VALID,997.94,VALID,0,VALID,92.1811,VALID,0,VALID,22.4721,VALID,124,VALID,1.04922,
2011-01-14, 00:23:04,VALID,997.941,VALID,0,VALID,92.2192,VALID,0,VALID,22.5306,VALID,146,VALID,1.40156,
2011-01-14, 00:24:04,VALID,997.964,VALID,0,VALID,92.265,VALID,0.112286,VALID,22.5892,VALID,154,VALID,1.44492,
2011-01-14, 00:25:04,VALID,997.931,VALID,0,VALID,92.2497,VALID,0.112286,VALID,22.6087,VALID,152,VALID,1.43594,
2011-01-14, 00:26:04,VALID,997.938,VALID,0,VALID,92.2192,VALID,0,VALID,22.6672,VALID,149,VALID,1.11094,
2011-01-14, 00:27:04,VALID,997.957,VALID,0,VALID,92.1734,VALID,0,VALID,22.6867,VALID,148,VALID,0.8,
2011-01-14, 00:28:04,VALID,997.954,VALID,0,VALID,92.0971,VALID,0,VALID,22.7062,VALID,148,VALID,0.817969,
2011-01-14, 00:29:04,VALID,997.958,VALID,0,VALID,92.0514,VALID,0,VALID,22.7062,VALID,156,VALID,0.861328,
2011-01-14, 00:30:04,VALID,997.953,VALID,0,VALID,91.9293,VALID,0.112286,VALID,22.685,VALID,170,VALID,0.923437,
2011-01-14, 00:31:04,VALID,997.94,VALID,0,VALID,91.8377,VALID,0,VALID,22.7257,VALID,169,VALID,0.497266,
2011-01-14, 00:32:04,VALID,997.936,VALID,0,VALID,91.7004,VALID,0.112286,VALID,22.7257,VALID,169,VALID,0.897656,
2011-01-14, 00:33:04,VALID,997.923,VALID,0,VALID,91.5707,VALID,0,VALID,22.7257,VALID,168,VALID,0.609766,
2011-01-14, 00:34:04,VALID,997.929,VALID,0,VALID,91.4639,VALID,0,VALID,22.7257,VALID,168,VALID,0.391797,
2011-01-14, 00:35:04,VALID,997.92,VALID,0,VALID,91.4028,VALID,0,VALID,22.7452,VALID,158,VALID,0.652344,
2011-01-14, 00:36:04,VALID,997.872,VALID,0,VALID,91.3266,VALID,0.112286,VALID,22.7257,VALID,138,VALID,0.847266,
2011-01-14, 00:37:04,VALID,997.85,VALID,0,VALID,91.2808,VALID,0,VALID,22.7257,VALID,138,VALID,0.755078,
2011-01-14, 00:38:04,VALID,997.892,VALID,0,VALID,91.2197,VALID,0.112286,VALID,22.7257,VALID,137,VALID,0.601563,
2011-01-14, 00:39:04,VALID,997.888,VALID,0,VALID,91.1968,VALID,0,VALID,22.7062,VALID,137,VALID,0.566406,
2011-01-14, 00:40:04,VALID,997.887,VALID,0,VALID,91.1434,VALID,0.112286,VALID,22.7062,VALID,137,VALID,0.515625,
2011-01-14, 00:41:04,VALID,997.898,VALID,0,VALID,91.1129,VALID,0.112286,VALID,22.7062,VALID,137,VALID,0.519141,
2011-01-14, 00:42:04,VALID,997.912,VALID,0,VALID,91.09,VALID,0,VALID,22.685,VALID,137,VALID,0.816797,
2011-01-14, 00:43:04,VALID,997.9,VALID,0,VALID,91.0214,VALID,0,VALID,22.7062,VALID,137,VALID,0.895703,
2011-01-14, 00:44:04,VALID,997.926,VALID,0,VALID,90.9298,VALID,0,VALID,22.7257,VALID,137,VALID,0.70625,
2011-01-14, 00:45:04,VALID,997.919,VALID,0,VALID,90.8535,VALID,0,VALID,22.7257,VALID,137,VALID,0.632813,
2011-01-14, 00:46:04,VALID,997.919,VALID,0,VALID,90.7696,VALID,0,VALID,22.7452,VALID,137,VALID,0.652344,
2011-01-14, 00:47:04,VALID,997.886,VALID,0,VALID,90.7391,VALID,0,VALID,22.7664,VALID,137,VALID,0.555078,
2011-01-14, 00:48:04,VALID,997.891,VALID,0,VALID,90.7238,VALID,0,VALID,22.7452,VALID,137,VALID,0.646094,
2011-01-14, 00:49:04,VALID,997.878,VALID,0,VALID,90.7391,VALID,0,VALID,22.724,VALID,136,VALID,0.609766,
2011-01-14, 00:50:04,VALID,997.861,VALID,0,VALID,90.7849,VALID,0.112286,VALID,22.7452,VALID,136,VALID,0.270703,
2011-01-14, 00:51:04,VALID,997.838,VALID,0,VALID,90.8764,VALID,0.112286,VALID,22.7647,VALID,136,VALID,0.233984,
2011-01-14, 00:52:04,VALID,997.817,VALID,0,VALID,90.968,VALID,0,VALID,22.7647,VALID,136,VALID,0.212891,
2011-01-14, 00:53:04,VALID,997.82,VALID,0,VALID,91.0519,VALID,0,VALID,22.7435,VALID,136,VALID,0,
2011-01-14, 00:54:04,VALID,997.786,VALID,0,VALID,91.1282,VALID,0.112286,VALID,22.724,VALID,136,VALID,0,
2011-01-14, 00:55:04,VALID,997.772,VALID,0,VALID,91.2045,VALID,0.112286,VALID,22.7257,VALID,136,VALID,0,
2011-01-14, 00:56:04,VALID,997.772,VALID,0,VALID,91.2426,VALID,0,VALID,22.685,VALID,136,VALID,0,
2011-01-14, 00:57:04,VALID,997.775,VALID,0,VALID,91.2655,VALID,0,VALID,22.6867,VALID,136,VALID,0,
2011-01-14, 00:58:04,VALID,997.743,VALID,0,VALID,91.3342,VALID,0,VALID,22.6655,VALID,136,VALID,0.178516,
2011-01-14, 00:59:04,VALID,997.757,VALID,0,VALID,91.3723,VALID,0,VALID,22.6672,VALID,136,VALID,0.43125,
2011-01-14, 01:00:04,VALID,997.766,VALID,0,VALID,91.3342,VALID,0,VALID,22.6672,VALID,136,VALID,0.605078,
2011-01-14, 01:01:04,VALID,997.781,VALID,0,VALID,91.3113,VALID,0,VALID,22.6884,VALID,128,VALID,0.645312,
2011-01-14, 01:02:04,VALID,997.802,VALID,0,VALID,91.2579,VALID,0,VALID,22.6672,VALID,101,VALID,0.680469,
2011-01-14, 01:03:04,VALID,997.783,VALID,0,VALID,91.2045,VALID,0,VALID,22.6867,VALID,85,VALID,0.848047,
2011-01-14, 01:04:04,VALID,997.768,VALID,0,VALID,91.1434,VALID,0,VALID,22.6867,VALID,85,VALID,0.964844,
2011-01-14, 01:05:04,VALID,997.782,VALID,0,VALID,90.9909,VALID,0,VALID,22.6867,VALID,85,VALID,0.688672,
2011-01-14, 01:06:04,VALID,997.787,VALID,0,VALID,90.8993,VALID,0,VALID,22.7062,VALID,50,VALID,0.719141,
2011-01-14, 01:07:04,VALID,997.77,VALID,0,VALID,90.884,VALID,0,VALID,22.7062,VALID,31,VALID,0.78125,
2011-01-14, 01:08:04,VALID,997.769,VALID,0,VALID,90.884,VALID,0,VALID,22.7062,VALID,31,VALID,0.71875,
2011-01-14, 01:09:04,VALID,997.745,VALID,0,VALID,90.884,VALID,0,VALID,22.7062,VALID,31,VALID,0.659766,
2011-01-14, 01:10:04,VALID,997.768,VALID,0,VALID,90.9222,VALID,0,VALID,22.7062,VALID,31,VALID,0.583984,
2011-01-14, 01:11:04,VALID,997.739,VALID,0,VALID,90.9527,VALID,0,VALID,22.6867,VALID,31,VALID,0.736719,
2011-01-14, 01:12:04,VALID,997.748,VALID,0,VALID,91.0137,VALID,0,VALID,22.6867,VALID,31,VALID,0.728906,
2011-01-14, 01:13:04,VALID,997.791,VALID,0,VALID,91.09,VALID,0,VALID,22.6867,VALID,31,VALID,0.833203,
2011-01-14, 01:14:04,VALID,997.775,VALID,0,VALID,91.1892,VALID,0,VALID,22.646,VALID,3,VALID,0.841797,
2011-01-14, 01:15:04,VALID,997.799,VALID,0,VALID,91.2808,VALID,0,VALID,22.646,VALID,3,VALID,1.0082,
2011-01-14, 01:16:04,VALID,997.788,VALID,0,VALID,91.3342,VALID,0,VALID,22.6672,VALID,14,VALID,0.944922,
2011-01-14, 01:17:04,VALID,997.834,VALID,0,VALID,91.3876,VALID,0,VALID,22.6672,VALID,20,VALID,0.84375,
2011-01-14, 01:18:04,VALID,997.809,VALID,0,VALID,91.4563,VALID,0,VALID,22.6477,VALID,20,VALID,0.860547,
2011-01-14, 01:19:04,VALID,997.835,VALID,0,VALID,91.4944,VALID,0,VALID,22.6264,VALID,20,VALID,0.754687,
2011-01-14, 01:20:04,VALID,997.807,VALID,0,VALID,91.5478,VALID,0,VALID,22.6477,VALID,20,VALID,0.719531,
2011-01-14, 01:21:04,VALID,997.792,VALID,0,VALID,91.5478,VALID,0,VALID,22.6477,VALID,20,VALID,0.722266,
2011-01-14, 01:22:04,VALID,997.752,VALID,0,VALID,91.6088,VALID,0,VALID,22.6477,VALID,20,VALID,0.6625,
2011-01-14, 01:23:04,VALID,997.764,VALID,0,VALID,91.6012,VALID,0,VALID,22.6282,VALID,20,VALID,0.617578,
2011-01-14, 01:24:04,VALID,997.745,VALID,0,VALID,91.6241,VALID,0,VALID,22.6087,VALID,20,VALID,0.48125,
2011-01-14, 01:25:04,VALID,997.725,VALID,0,VALID,91.6241,VALID,0,VALID,22.6087,VALID,20,VALID,0.428906,
2011-01-14, 01:26:04,VALID,997.71,VALID,0,VALID,91.6012,VALID,0,VALID,22.6282,VALID,20,VALID,0.325781,
2011-01-14, 01:27:04,VALID,997.728,VALID,0,VALID,91.5936,VALID,0,VALID,22.6087,VALID,20,VALID,0.359375,
2011-01-14, 01:28:04,VALID,997.695,VALID,0,VALID,91.5707,VALID,0,VALID,22.5892,VALID,20,VALID,0.574609,
2011-01-14, 01:29:04,VALID,997.705,VALID,0,VALID,91.5478,VALID,0,VALID,22.5696,VALID,20,VALID,0.645703,
2011-01-14, 01:30:04,VALID,997.699,VALID,0,VALID,91.5173,VALID,0,VALID,22.5696,VALID,20,VALID,0.851172,
2011-01-14, 01:31:04,VALID,997.68,VALID,0,VALID,91.4715,VALID,0,VALID,22.5306,VALID,28,VALID,1.04414,
2011-01-14, 01:32:04,VALID,997.651,VALID,0,VALID,91.4028,VALID,0.112286,VALID,22.5501,VALID,30,VALID,0.982813,
2011-01-14, 01:33:04,VALID,997.634,VALID,0,VALID,91.3418,VALID,0,VALID,22.5501,VALID,35,VALID,0.923047,
2011-01-14, 01:34:04,VALID,997.637,VALID,0,VALID,91.296,VALID,0,VALID,22.5501,VALID,35,VALID,0.678125,
2011-01-14, 01:35:04,VALID,997.646,VALID,0,VALID,91.2655,VALID,0,VALID,22.5501,VALID,35,VALID,0.702344,
2011-01-14, 01:36:04,VALID,997.629,VALID,0,VALID,91.235,VALID,0,VALID,22.5289,VALID,35,VALID,0.749609,
2011-01-14, 01:37:04,VALID,997.6,VALID,0,VALID,91.2274,VALID,0,VALID,22.5501,VALID,35,VALID,0.805078,
2011-01-14, 01:38:04,VALID,997.597,VALID,0,VALID,91.2045,VALID,0,VALID,22.5306,VALID,35,VALID,0.865234,
2011-01-14, 01:39:04,VALID,997.586,VALID,0,VALID,91.1663,VALID,0,VALID,22.5306,VALID,35,VALID,0.738672,
2011-01-14, 01:40:04,VALID,997.59,VALID,0,VALID,91.0977,VALID,0,VALID,22.5501,VALID,35,VALID,0.709375,
2011-01-14, 01:41:04,VALID,997.615,VALID,0,VALID,91.0671,VALID,0,VALID,22.5306,VALID,35,VALID,0.666406,
2011-01-14, 01:42:04,VALID,997.611,VALID,0,VALID,90.9909,VALID,0,VALID,22.5094,VALID,35,VALID,0.737891,
2011-01-14, 01:43:04,VALID,997.581,VALID,0,VALID,90.9985,VALID,0.112286,VALID,22.5501,VALID,43,VALID,0.840234,
2011-01-14, 01:44:04,VALID,997.593,VALID,0,VALID,90.9451,VALID,0.112286,VALID,22.5306,VALID,57,VALID,0.844922,
2011-01-14, 01:45:04,VALID,997.598,VALID,0,VALID,90.8383,VALID,0,VALID,22.5289,VALID,74,VALID,0.889063,
2011-01-14, 01:46:04,VALID,997.59,VALID,0,VALID,90.6475,VALID,0,VALID,22.5501,VALID,80,VALID,0.947266,
2011-01-14, 01:47:04,VALID,997.608,VALID,0,VALID,90.3423,VALID,0.112286,VALID,22.5696,VALID,89,VALID,1.09648,
2011-01-14, 01:48:04,VALID,997.608,VALID,0,VALID,90.0066,VALID,0,VALID,22.5874,VALID,89,VALID,0.928125,
2011-01-14, 01:49:04,VALID,997.594,VALID,0,VALID,89.7854,VALID,0,VALID,22.6069,VALID,89,VALID,0.888281,
2011-01-14, 01:50:04,VALID,997.636,VALID,0,VALID,89.5717,VALID,0,VALID,22.6264,VALID,89,VALID,0.834766,
2011-01-14, 01:51:04,VALID,997.627,VALID,0,VALID,89.4497,VALID,0,VALID,22.6477,VALID,89,VALID,0.670703,
2011-01-14, 01:52:04,VALID,997.647,VALID,0,VALID,89.4191,VALID,0,VALID,22.6672,VALID,89,VALID,0.65625,
2011-01-14, 01:53:04,VALID,997.647,VALID,0,VALID,89.526,VALID,0,VALID,22.6867,VALID,89,VALID,0.412891,
2011-01-14, 01:54:04,VALID,997.656,VALID,0,VALID,89.6251,VALID,0,VALID,22.646,VALID,89,VALID,0.366406,
2011-01-14, 01:55:04,VALID,997.694,VALID,0,VALID,89.6328,VALID,0,VALID,22.6477,VALID,89,VALID,0.413672,
2011-01-14, 01:56:04,VALID,997.695,VALID,0,VALID,89.6175,VALID,0,VALID,22.6282,VALID,89,VALID,0.279297,
2011-01-14, 01:57:04,VALID,997.662,VALID,0,VALID,89.648,VALID,0.112286,VALID,22.6069,VALID,89,VALID,0.235938,
2011-01-14, 01:58:04,VALID,997.685,VALID,0,VALID,89.6404,VALID,0,VALID,22.6087,VALID,89,VALID,0.336719,
2011-01-14, 01:59:04,VALID,997.7,VALID,0,VALID,89.6251,VALID,0,VALID,22.5892,VALID,89,VALID,0.469141,
2011-01-14, 02:00:04,VALID,997.698,VALID,0,VALID,89.6099,VALID,0,VALID,22.5892,VALID,89,VALID,0.34375,
2011-01-14, 02:01:04,VALID,997.684,VALID,0,VALID,89.6633,VALID,0,VALID,22.5696,VALID,89,VALID,0.286328,
2011-01-14, 02:02:04,VALID,997.687,VALID,0,VALID,89.6938,VALID,0,VALID,22.5696,VALID,89,VALID,0.317578,
2011-01-14, 02:03:04,VALID,997.699,VALID,0,VALID,89.8464,VALID,0,VALID,22.5892,VALID,89,VALID,0.158984,
2011-01-14, 02:04:04,VALID,997.701,VALID,0,VALID,89.9609,VALID,0,VALID,22.5696,VALID,89,VALID,0.116406,
2011-01-14, 02:05:04,VALID,997.705,VALID,0,VALID,90.0906,VALID,0.112286,VALID,22.5501,VALID,89,VALID,0,
2011-01-14, 02:06:04,VALID,997.711,VALID,0,VALID,90.1745,VALID,0.112286,VALID,22.5306,VALID,89,VALID,0,
2011-01-14, 02:07:04,VALID,997.688,VALID,0,VALID,90.3118,VALID,0,VALID,22.5306,VALID,89,VALID,0,
2011-01-14, 02:08:04,VALID,997.701,VALID,0,VALID,90.4568,VALID,0,VALID,22.5094,VALID,89,VALID,0,
2011-01-14, 02:09:04,VALID,997.676,VALID,0,VALID,90.617,VALID,0,VALID,22.4899,VALID,89,VALID,0.150391,
2011-01-14, 02:10:04,VALID,997.674,VALID,0,VALID,90.7238,VALID,0,VALID,22.4916,VALID,89,VALID,0.187891,
2011-01-14, 02:11:04,VALID,997.679,VALID,0,VALID,90.8077,VALID,0,VALID,22.4916,VALID,89,VALID,0,
2011-01-14, 02:12:04,VALID,997.677,VALID,0,VALID,90.8459,VALID,0,VALID,22.4721,VALID,89,VALID,0,
2011-01-14, 02:13:04,VALID,997.71,VALID,0,VALID,90.9222,VALID,0,VALID,22.4721,VALID,89,VALID,0,
2011-01-14, 02:14:04,VALID,997.665,VALID,0,VALID,91.0137,VALID,0,VALID,22.4721,VALID,89,VALID,0,
2011-01-14, 02:15:04,VALID,997.733,VALID,0,VALID,91.0519,VALID,0,VALID,22.4526,VALID,89,VALID,0,
2011-01-14, 02:16:04,VALID,997.682,VALID,0,VALID,91.0977,VALID,0,VALID,22.4526,VALID,89,VALID,0,
2011-01-14, 02:17:04,VALID,997.655,VALID,0,VALID,91.2045,VALID,0,VALID,22.4526,VALID,89,VALID,0,
2011-01-14, 02:18:04,VALID,997.638,VALID,0,VALID,91.3189,VALID,0,VALID,22.4526,VALID,89,VALID,0,
2011-01-14, 02:19:04,VALID,997.619,VALID,0,VALID,91.4181,VALID,0,VALID,22.4331,VALID,89,VALID,0,
2011-01-14, 02:20:04,VALID,997.599,VALID,0,VALID,91.4944,VALID,0,VALID,22.4136,VALID,89,VALID,0,
2011-01-14, 02:21:04,VALID,997.602,VALID,0,VALID,91.5326,VALID,0,VALID,22.3924,VALID,89,VALID,0,
2011-01-14, 02:22:04,VALID,997.584,VALID,0,VALID,91.6012,VALID,0,VALID,22.3941,VALID,89,VALID,0,
2011-01-14, 02:23:04,VALID,997.598,VALID,0,VALID,91.6775,VALID,0.112286,VALID,22.3924,VALID,89,VALID,0,
2011-01-14, 02:24:04,VALID,997.617,VALID,0,VALID,91.6699,VALID,0,VALID,22.3746,VALID,89,VALID,0,
2011-01-14, 02:25:04,VALID,997.6,VALID,0,VALID,91.708,VALID,0,VALID,22.3729,VALID,89,VALID,0,
2011-01-14, 02:26:04,VALID,997.603,VALID,0,VALID,91.7767,VALID,0,VALID,22.3941,VALID,89,VALID,0,
2011-01-14, 02:27:04,VALID,997.575,VALID,0,VALID,91.8072,VALID,0,VALID,22.3729,VALID,89,VALID,0,
2011-01-14, 02:28:04,VALID,997.611,VALID,0,VALID,91.8683,VALID,0,VALID,22.4136,VALID,89,VALID,0,
2011-01-14, 02:29:05,VALID,997.598,VALID,0,VALID,91.8759,VALID,0,VALID,22.3729,VALID,89,VALID,0,
2011-01-14, 02:30:05,VALID,997.619,VALID,0,VALID,91.8835,VALID,0.112286,VALID,22.3729,VALID,89,VALID,0,
2011-01-14, 02:31:05,VALID,997.596,VALID,0,VALID,91.8683,VALID,0,VALID,22.3941,VALID,89,VALID,0,
2011-01-14, 02:32:05,VALID,997.58,VALID,0,VALID,91.8377,VALID,0,VALID,22.3924,VALID,89,VALID,0,
2011-01-14, 02:33:05,VALID,997.59,VALID,0,VALID,91.8072,VALID,0,VALID,22.3941,VALID,89,VALID,0,
2011-01-14, 02:34:05,VALID,997.581,VALID,0,VALID,91.7996,VALID,0,VALID,22.3729,VALID,89,VALID,0,
2011-01-14, 02:35:05,VALID,997.583,VALID,0,VALID,91.7691,VALID,0,VALID,22.3746,VALID,89,VALID,0,
2011-01-14, 02:36:05,VALID,997.584,VALID,0,VALID,91.7767,VALID,0,VALID,22.3941,VALID,89,VALID,0,
2011-01-14, 02:37:05,VALID,997.594,VALID,0,VALID,91.7691,VALID,0,VALID,22.3534,VALID,89,VALID,0,
2011-01-14, 02:38:05,VALID,997.593,VALID,0,VALID,91.7767,VALID,0,VALID,22.3746,VALID,89,VALID,0,
2011-01-14, 02:39:05,VALID,997.612,VALID,0,VALID,91.7462,VALID,0.112286,VALID,22.3746,VALID,89,VALID,0,
2011-01-14, 02:40:05,VALID,997.625,VALID,0,VALID,91.7233,VALID,0,VALID,22.3746,VALID,89,VALID,0,
2011-01-14, 02:41:05,VALID,997.605,VALID,0,VALID,91.6623,VALID,0,VALID,22.3941,VALID,89,VALID,0.478516,
2011-01-14, 02:42:05,VALID,997.623,VALID,0,VALID,91.586,VALID,0,VALID,22.4136,VALID,89,VALID,0.55625,
2011-01-14, 02:43:05,VALID,997.605,VALID,0,VALID,91.5097,VALID,0,VALID,22.4119,VALID,109,VALID,0.359375,
2011-01-14, 02:44:05,VALID,997.614,VALID,0,VALID,91.4334,VALID,0.112286,VALID,22.4119,VALID,109,VALID,0.487109,
2011-01-14, 02:45:05,VALID,997.583,VALID,0,VALID,91.3876,VALID,0.112286,VALID,22.4314,VALID,109,VALID,0.351953,
2011-01-14, 02:46:05,VALID,997.595,VALID,0,VALID,91.38,VALID,0,VALID,22.4721,VALID,109,VALID,0.31875,
2011-01-14, 02:47:05,VALID,997.581,VALID,0,VALID,91.3647,VALID,0,VALID,22.4526,VALID,109,VALID,0.144141,
2011-01-14, 02:48:05,VALID,997.586,VALID,0,VALID,91.3418,VALID,0,VALID,22.4721,VALID,109,VALID,0.0789063,
2011-01-14, 02:49:05,VALID,997.518,VALID,0,VALID,91.3494,VALID,0,VALID,22.4526,VALID,109,VALID,0.208594,
2011-01-14, 02:50:05,VALID,997.551,VALID,0,VALID,91.3189,VALID,0,VALID,22.4526,VALID,109,VALID,0.195313,
2011-01-14, 02:51:05,VALID,997.528,VALID,0,VALID,91.3113,VALID,0,VALID,22.4526,VALID,109,VALID,0.112891,
2011-01-14, 02:52:05,VALID,997.495,VALID,0,VALID,91.3266,VALID,0,VALID,22.4526,VALID,109,VALID,0.194141,
2011-01-14, 02:53:05,VALID,997.496,VALID,0,VALID,91.3342,VALID,0,VALID,22.4526,VALID,108,VALID,0.362891,
2011-01-14, 02:54:05,VALID,997.477,VALID,0,VALID,91.2731,VALID,0,VALID,22.4331,VALID,103,VALID,0.553516,
2011-01-14, 02:55:05,VALID,997.458,VALID,0,VALID,91.2121,VALID,0.112286,VALID,22.4331,VALID,103,VALID,0.368359,
2011-01-14, 02:56:05,VALID,997.45,VALID,0,VALID,91.1206,VALID,0,VALID,22.4331,VALID,103,VALID,0.202344,
2011-01-14, 02:57:05,VALID,997.423,VALID,0,VALID,91.0443,VALID,0,VALID,22.4331,VALID,103,VALID,0.390234,
2011-01-14, 02:58:05,VALID,997.437,VALID,0,VALID,90.9451,VALID,0,VALID,22.4331,VALID,114,VALID,0.295703,
2011-01-14, 02:59:05,VALID,997.448,VALID,0,VALID,90.9451,VALID,0,VALID,22.4543,VALID,114,VALID,0.395312,
2011-01-14, 03:00:05,VALID,997.418,VALID,0,VALID,90.9298,VALID,0,VALID,22.4543,VALID,114,VALID,0.441016,
2011-01-14, 03:01:05,VALID,997.418,VALID,0,VALID,90.884,VALID,0,VALID,22.4331,VALID,114,VALID,0.35,
2011-01-14, 03:02:05,VALID,997.417,VALID,0,VALID,90.7772,VALID,0,VALID,22.4136,VALID,114,VALID,0,
2011-01-14, 03:03:05,VALID,997.394,VALID,0,VALID,90.7085,VALID,0,VALID,22.4153,VALID,114,VALID,0,
2011-01-14, 03:04:05,VALID,997.382,VALID,0,VALID,90.6323,VALID,0,VALID,22.3941,VALID,114,VALID,0,
2011-01-14, 03:05:05,VALID,997.36,VALID,0,VALID,90.5941,VALID,0,VALID,22.3746,VALID,114,VALID,0,
2011-01-14, 03:06:05,VALID,997.37,VALID,0,VALID,90.5941,VALID,0,VALID,22.3746,VALID,114,VALID,0.177344,
2011-01-14, 03:07:05,VALID,997.365,VALID,0,VALID,90.6017,VALID,0.112286,VALID,22.3746,VALID,114,VALID,0,
2011-01-14, 03:08:05,VALID,997.359,VALID,0,VALID,90.5026,VALID,0,VALID,22.3746,VALID,114,VALID,0,
2011-01-14, 03:09:05,VALID,997.311,VALID,0,VALID,90.3957,VALID,0,VALID,22.3551,VALID,114,VALID,0.155469,
2011-01-14, 03:10:05,VALID,997.351,VALID,0,VALID,90.3576,VALID,0,VALID,22.3551,VALID,114,VALID,0.529297,
2011-01-14, 03:11:05,VALID,997.329,VALID,0,VALID,90.4263,VALID,0,VALID,22.3551,VALID,326,VALID,0.509375,
2011-01-14, 03:12:05,VALID,997.353,VALID,0,VALID,90.4568,VALID,0,VALID,22.3551,VALID,326,VALID,0.379297,
2011-01-14, 03:13:05,VALID,997.345,VALID,0,VALID,90.556,VALID,0,VALID,22.3356,VALID,326,VALID,0.544922,
2011-01-14, 03:14:05,VALID,997.362,VALID,0,VALID,90.7238,VALID,0,VALID,22.3161,VALID,326,VALID,0.447266,
2011-01-14, 03:15:05,VALID,997.376,VALID,0,VALID,90.8306,VALID,0,VALID,22.3551,VALID,326,VALID,0.375781,
2011-01-14, 03:16:05,VALID,997.382,VALID,0,VALID,90.884,VALID,0,VALID,22.3941,VALID,326,VALID,0.238281,
2011-01-14, 03:17:05,VALID,997.357,VALID,0,VALID,90.8306,VALID,0,VALID,22.4331,VALID,212,VALID,0.571875,
2011-01-14, 03:18:05,VALID,997.377,VALID,0,VALID,90.7009,VALID,0,VALID,22.4331,VALID,208,VALID,0.951563,
2011-01-14, 03:19:05,VALID,997.378,VALID,0,VALID,90.5407,VALID,0,VALID,22.4721,VALID,177,VALID,1.02266,
2011-01-14, 03:20:05,VALID,997.373,VALID,0,VALID,90.2355,VALID,0,VALID,22.5306,VALID,168,VALID,0.930859,
2011-01-14, 03:21:05,VALID,997.409,VALID,0,VALID,89.9074,VALID,0,VALID,22.5696,VALID,170,VALID,0.90625,
2011-01-14, 03:22:05,VALID,997.383,VALID,0,VALID,89.4726,VALID,0,VALID,22.6087,VALID,159,VALID,0.837109,
2011-01-14, 03:23:05,VALID,997.387,VALID,0,VALID,89.1216,VALID,0,VALID,22.6867,VALID,155,VALID,1.10781,
2011-01-14, 03:24:05,VALID,997.386,VALID,0,VALID,88.7096,VALID,0,VALID,22.6867,VALID,166,VALID,0.926953,
2011-01-14, 03:25:05,VALID,997.39,VALID,0,VALID,88.6791,VALID,0.112286,VALID,22.7045,VALID,157,VALID,0.738281,
2011-01-14, 03:26:05,VALID,997.375,VALID,0,VALID,88.5646,VALID,0,VALID,22.7452,VALID,189,VALID,1.26563,
2011-01-14, 03:27:05,VALID,997.386,VALID,0,VALID,88.3586,VALID,0.112286,VALID,22.7842,VALID,189,VALID,1.29062,
2011-01-14, 03:28:05,VALID,997.41,VALID,0,VALID,88.2976,VALID,0,VALID,22.8232,VALID,176,VALID,1.26641,
2011-01-14, 03:29:05,VALID,997.452,VALID,0,VALID,88.1908,VALID,0,VALID,22.8232,VALID,167,VALID,1.27266,
2011-01-14, 03:30:05,VALID,997.482,VALID,0,VALID,88.2213,VALID,0,VALID,22.8037,VALID,161,VALID,1.05625,
2011-01-14, 03:31:05,VALID,997.459,VALID,0,VALID,88.3434,VALID,0,VALID,22.7842,VALID,172,VALID,0.753125,
2011-01-14, 03:32:05,VALID,997.47,VALID,0,VALID,88.6028,VALID,0,VALID,22.7842,VALID,172,VALID,0.923828,
2011-01-14, 03:33:05,VALID,997.462,VALID,0,VALID,88.6714,VALID,0,VALID,22.7452,VALID,175,VALID,0.695313,
2011-01-14, 03:34:05,VALID,997.447,VALID,0,VALID,88.7096,VALID,0.112286,VALID,22.7062,VALID,175,VALID,0.94375,
2011-01-14, 03:35:05,VALID,997.454,VALID,0,VALID,88.7172,VALID,0,VALID,22.7062,VALID,187,VALID,0.828125,
2011-01-14, 03:36:05,VALID,997.446,VALID,0,VALID,88.5875,VALID,0,VALID,22.7257,VALID,190,VALID,0.552734,
2011-01-14, 03:37:05,VALID,997.443,VALID,0,VALID,88.4349,VALID,0,VALID,22.7257,VALID,190,VALID,0.474219,
2011-01-14, 03:38:05,VALID,997.472,VALID,0,VALID,88.3357,VALID,0,VALID,22.7062,VALID,190,VALID,0.160156,
2011-01-14, 03:39:05,VALID,997.418,VALID,0,VALID,88.2442,VALID,0,VALID,22.6867,VALID,189,VALID,0.244922,
2011-01-14, 03:40:05,VALID,997.454,VALID,0,VALID,88.1984,VALID,0,VALID,22.6672,VALID,189,VALID,0.2125,
2011-01-14, 03:41:05,VALID,997.453,VALID,0,VALID,88.1679,VALID,0,VALID,22.6672,VALID,189,VALID,0.0789063,
2011-01-14, 03:42:05,VALID,997.461,VALID,0,VALID,88.0687,VALID,0,VALID,22.6477,VALID,189,VALID,0,
2011-01-14, 03:43:05,VALID,997.423,VALID,0,VALID,88.0153,VALID,0,VALID,22.6282,VALID,189,VALID,0,
2011-01-14, 03:44:05,VALID,997.418,VALID,0,VALID,88.0611,VALID,0,VALID,22.6087,VALID,189,VALID,0.284766,
2011-01-14, 03:45:05,VALID,997.416,VALID,0,VALID,88.145,VALID,0,VALID,22.5696,VALID,189,VALID,0.021875,
2011-01-14, 03:46:05,VALID,997.429,VALID,0,VALID,88.206,VALID,0,VALID,22.5306,VALID,189,VALID,0.4375,